Regional Weather Roundup
Issued by NWS

Home | Current Version | Previous Version | Text Only | Print | Product List | Glossary Off
Versions: 1 2 3 4 5 6 7 8 9 10 11 12 13 14 15 16 17 18 19 20 21 22 23 24 25 26 27

000
ASUS45 KSLC 152010
RWRUT

UTAH REGIONAL WEATHER ROUNDUP
NATIONAL WEATHER SERVICE SALT LAKE CITY UT
200 PM MDT SUN OCT 15 2017

UTZ001>011-023>025-152100-

NORTHERN UTAH

CITY           SKY/WX    TMP DP  RH WIND       PRES   REMARKS
BRIGHAM CITY   SUNNY     52  11  19 CALM      30.51F
HILL AFB       SUNNY     50  14  23 N3        30.49F
LOGAN          SUNNY     52  22  30 NE6       30.50F
OGDEN          SUNNY     53  22  29 NW5       30.49F
SALT LAKE CITY MOSUNNY   55  21  26 NW5       30.49F
TOOELE VALLEY  SUNNY     50  27  40 NE6       30.50F
WENDOVER       SUNNY     48  15  26 VRB5      30.51F
WEST JORDAN    SUNNY     51  27  38 CALM      30.49F

$$

UTZ011>015-024>027-152100-

CENTRAL/NORTHEAST UTAH

CITY           SKY/WX    TMP DP  RH WIND       PRES   REMARKS
PROVO AIRPORT  SUNNY     49  26  41 W7        30.49F
MOAB/CANYONLAN SUNNY     60   8  12 NE6       30.48F
DELTA          SUNNY     50  16  25 CALM      30.48F
PRICE          SUNNY     55   5  13 E5        30.52F
ROOSEVELT      SUNNY     52  12  20 NE3       30.54F
VERNAL         SUNNY     54  12  18 VRB3      30.52F

$$

UTZ013>016-019>022-027-152100-

SOUTHERN UTAH

CITY           SKY/WX    TMP DP  RH WIND       PRES   REMARKS
BRYCE CANYON   SUNNY     57   2  11 S9        30.54F
CEDAR CITY     SUNNY     55  10  16 CALM      30.45F
MILFORD        SUNNY     56  13  18 NE9       30.45F
ST GEORGE      CLEAR     67  12  12 NW6       30.36F
HANKSVILLE     SUNNY     59   9  13 NW5       30.53F
BLANDING         N/A     60   6  11 S3        30.56F

$$

REGIONAL REPORTS     COLORADO/ARIZONA

CITY           SKY/WX    TMP DP  RH WIND       PRES   REMARKS
CRAIG, CO      SUNNY     56   9  15 VRB6      30.51F
GRAND JUNCTION SUNNY     59   7  12 CALM      30.49F
RIFLE, CO      SUNNY     56  -1  10 CALM      30.49F
MONTROSE, CO   SUNNY     55  10  16 NW3       30.51F
CORTEZ, CO     SUNNY     62  12  14 S12       30.48F
COLORADO CITY    N/A     73   5   7 E7        30.42F
PAGE, AZ       SUNNY     63   6  10 VRB6      30.46F
GRAND CANYON   SUNNY     65  -5   6 NE18      30.48F
KINGMAN, AZ    SUNNY     77  16  10 N10G17    30.30F
FLAGSTAFF, AZ  SUNNY     61  -4   7 E12G18    30.49F

$$

REGIONAL REPORTS    NEVADA/IDAHO/WYOMING

CITY           SKY/WX    TMP DP  RH WIND       PRES   REMARKS
LAS VEGAS, NV  SUNNY     73   9   8 N6        30.30F
ELY, NY        SUNNY     55   2  11 N6        30.45F
ELKO, NV       SUNNY     56   2  11 CALM      30.44F
POCATELLO, ID  SUNNY     53  26  35 E6        30.49F
BURLEY, ID     SUNNY     55  25  31 NE10      30.45F
FORT BRIDGER,    N/A     53  13  21 CALM      30.53F
EVANSTON, WY   SUNNY     54  17  23 NE3       30.50F
ROCK SPRINGS,  SUNNY     51   9  18 W9        30.50F
KEMMERER, WY   SUNNY     52   9  17 SW8       30.51F

$$




USA.gov is the U.S. government's official web portal to all federal, state and local government web resources and services.